FW5988 Weather Reports


time (UTC)temp
C
wind
direction
speed
KPH
gust
KPH
rain 1hr
cm
rain 24hr
cm
rain mn
cm
humidity
%
barometer
mb
20260507220037 10 165 8.0 16.1 0.00 0.05 0.05 87 1010.1
20260507214554 10 186 6.4 14.5 0.00 0.05 0.05 88 1010.1
20260507213016 10 159 8.0 14.5 0.00 0.05 0.05 89 1010.1
20260507211549 10 182 11.3 17.7 0.00 0.05 0.05 89 1010.1
20260507210114 10 113 6.4 16.1 0.00 0.05 0.05 86 1009.9
20260507204512 10 121 8.0 20.9 0.00 0.05 0.05 83 1009.9
20260507203043 10 124 8.0 14.5 0.00 0.05 0.05 81 1010.0
20260507201508 9 119 8.0 16.1 0.00 0.05 0.05 84 1010.1
20260507200041 9 128 9.7 17.7 0.00 0.05 0.05 84 1010.4
20260507194601 10 107 4.8 17.7 0.00 0.05 0.05 84 1010.3
20260507193008 10 97 6.4 19.3 0.00 0.05 0.05 82 1010.6
20260507191532 10 101 8.0 16.1 0.00 0.05 0.05 77 1010.6
20260507190058 10 95 4.8 14.5 0.00 0.05 0.05 82 1010.4
20260507184514 9 112 3.2 14.5 0.00 0.05 0.05 86 1011.0
20260507183043 9 123 8.0 16.1 0.00 0.05 0.05 87 1011.1
20260507181603 9 116 6.4 16.1 0.00 0.05 0.05 86 1010.9
20260507180019 9 112 6.4 12.9 0.00 0.05 0.05 86 1011.0
20260507174545 9 107 6.4 19.3 0.00 0.05 0.05 85 1011.1
20260507173123 9 115 6.4 14.5 0.00 0.05 0.05 85 1011.3
20260507171531 9 117 6.4 12.9 0.00 0.05 0.05 86 1011.5
20260507170058 10 85 3.2 11.3 0.00 0.08 0.05 85 1011.3
20260507164522 9 92 3.2 9.7 0.00 0.08 0.05 85 1011.9
20260507163037 10 84 6.4 14.5 0.00 0.08 0.05 88 1011.8
20260507161603 9 69 6.4 14.5 0.00 0.08 0.05 88 1011.8
20260507160027 9 81 3.2 16.1 0.00 0.08 0.05 89 1012.1
20260507154553 9 80 6.4 17.7 0.00 0.08 0.05 89 1012.4
20260507153009 10 71 3.2 9.7 0.03 0.08 0.05 91 1012.5
20260507151538 10 70 8.0 19.3 0.03 0.08 0.05 91 1012.2
20260507150055 10 65 9.7 17.7 0.03 0.08 0.05 93 1011.9
20260507144534 10 78 4.8 11.3 0.03 0.08 0.05 93 1011.9
20260507143048 10 346 4.8 12.9 0.00 0.05 0.03 92 1012.4
20260507141509 10 355 6.4 19.3 0.00 0.05 0.03 91 1012.6
20260507140035 10 11 9.7 16.1 0.00 0.15 0.03 90 1012.5
20260507134548 10 14 6.4 14.5 0.00 0.15 0.03 90 1012.5
20260507133059 10 11 4.8 9.7 0.00 0.15 0.03 89 1012.5
20260507131527 10 32 4.8 9.7 0.00 0.15 0.03 89 1012.6
20260507130050 10 49 3.2 9.7 0.00 0.18 0.03 90 1012.4
20260507124511 10 20 4.8 11.3 0.00 0.18 0.03 91 1012.3
20260507123037 10 42 6.4 16.1 0.00 0.18 0.03 93 1012.2
20260507121557 10 344 4.8 12.9 0.00 0.18 0.03 95 1012.3
20260507120008 10 348 4.8 12.9 0.00 0.18 0.03 96 1011.8
20260507114559 10 14 4.8 14.5 0.00 0.18 0.03 97 1012.0
20260507113130 10 351 3.2 12.9 0.00 0.18 0.03 98 1011.7
20260507111536 10 13 4.8 11.3 0.00 0.18 0.03 98 1011.6
20260507110045 10 65 4.8 9.7 0.00 0.18 0.03 98 1011.3
20260507104502 10 64 3.2 8.0 0.00 0.18 0.03 98 1011.0
20260507103041 10 44 3.2 8.0 0.00 0.18 0.03 98 1011.3
20260507101559 10 73 6.4 12.9 0.00 0.18 0.03 98 1011.1
20260507100014 10 77 4.8 12.9 0.00 0.18 0.03 98 1011.1
20260507094543 10 76 6.4 19.3 0.00 0.18 0.03 98 1010.8
20260507093102 10 76 3.2 14.5 0.00 0.18 0.03 98 1010.8
20260507091531 10 92 4.8 14.5 0.00 0.18 0.03 98 1011.0
20260507090049 10 104 4.8 16.1 0.00 0.18 0.03 98 1011.0
20260507084519 11 92 3.2 11.3 0.00 0.18 0.03 98 1010.7
20260507083043 11 98 3.2 16.1 0.00 0.18 0.03 98 1010.5
20260507081510 11 81 6.4 19.3 0.00 0.18 0.03 98 1010.3
20260507080044 11 105 4.8 14.5 0.00 0.18 0.03 97 1010.4
20260507074503 12 113 6.4 14.5 0.00 0.18 0.03 97 1010.4
20260507073021 13 94 4.8 16.1 0.00 0.18 0.03 97 1010.0
20260507071546 14 39 4.8 12.9 0.00 0.18 0.03 97 1009.9
20260507070012 15 69 1.6 6.4 0.00 0.18 0.03 98 1009.6
20260507064526 15 44 3.2 14.5 0.00 0.18 0.03 98 1009.4
20260507063044 16 344 9.7 29.0 0.00 0.18 0.03 98 1010.2
20260507061559 16 306 8.0 16.1 0.00 0.18 0.03 97 1010.1
20260507060027 16 271 12.9 17.7 0.00 0.18 0.03 97 1009.9
20260507054548 16 277 6.4 12.9 0.00 0.18 0.03 95 1010.0
20260507053103 17 257 6.4 14.5 0.00 0.18 0.03 93 1009.3
20260507051522 17 178 8.0 12.9 0.03 0.18 0.03 91 1009.0
20260507050043 17 208 6.4 12.9 0.03 0.18 0.03 89 1009.3
20260507044606 17 252 8.0 19.3 0.03 0.18 0.03 89 1009.6
20260507043024 17 209 8.0 17.7 0.03 0.18 0.03 91 1010.0
20260507041539 17 196 6.4 22.5 0.00 0.15 0.00 92 1009.8
20260507040106 17 177 8.0 24.1 0.00 0.15 0.00 92 1009.5
20260507034534 17 233 9.7 29.0 0.00 0.15 0.15 92 1010.0
20260507033045 17 221 14.5 29.0 0.00 0.15 0.15 91 1010.5
20260507031500 17 208 12.9 25.7 0.00 0.15 0.15 91 1010.1
20260507030029 17 223 11.3 24.1 0.00 0.15 0.15 92 1009.9
20260507024544 17 209 11.3 25.7 0.00 0.15 0.15 92 1010.2
20260507023109 17 229 12.9 27.4 0.00 0.15 0.15 92 1010.3
20260507021524 17 198 14.5 29.0 0.00 0.15 0.15 92 1009.5
20260507020057 17 146 17.7 35.4 0.00 0.15 0.15 91 1008.9
20260507014508 17 178 14.5 27.4 0.00 0.15 0.15 91 1009.4
20260507013040 17 186 11.3 33.8 0.00 0.15 0.15 91 1009.8
20260507011555 17 200 12.9 25.7 0.00 0.15 0.15 90 1009.6
20260507010033 17 197 14.5 27.4 0.00 0.15 0.15 90 1010.0
20260507004550 17 192 12.9 32.2 0.00 0.15 0.15 90 1009.8
20260507003000 17 204 11.3 24.1 0.00 0.15 0.15 90 1009.8
20260507001602 17 132 14.5 24.1 0.00 0.15 0.15 89 1009.8
20260507000056 17 190 16.1 32.2 0.00 0.15 0.15 89 1009.7
20260506234506 17 172 12.9 30.6 0.00 0.15 0.15 88 1009.2
20260506233031 17 191 11.3 22.5 0.00 0.15 0.15 87 1009.5
20260506231604 18 182 9.7 33.8 0.00 0.15 0.15 87 1009.8
20260506230048 18 177 16.1 37.0 0.00 0.15 0.15 86 1009.2
20260506224542 18 191 12.9 19.3 0.00 0.15 0.15 87 1009.2
20260506223107 18 159 14.5 38.6 0.00 0.15 0.15 87 1009.1
20260506221534 18 148 12.9 25.7 0.00 0.15 0.15 88 1009.0